Time,TemperatureF,DewpointF,PressureIn,WindDirection,WindDirectionDegrees,WindSpeedMPH,WindSpeedGustMPH,Humidity,HourlyPrecipIn,Conditions,Clouds,dailyrainin,SoftwareType,DateUTC
2013-11-17 00:14:00,41.7,28.9,29.41,NNW,337,2.2,-999.0,60,-99.99,,,0.00,Acu-Link.com,2013-11-17 06:14:00,
2013-11-17 00:30:00,42.1,28.8,29.41,West,270,2.7,-999.0,59,-99.99,,,0.00,Acu-Link.com,2013-11-17 06:30:00,
2013-11-17 00:45:00,42.3,29.0,29.41,NW,315,2.2,-999.0,59,-99.99,,,0.00,Acu-Link.com,2013-11-17 06:45:00,
2013-11-17 01:00:00,42.4,29.1,29.41,NNW,337,3.2,-999.0,59,-99.99,,,0.00,Acu-Link.com,2013-11-17 07:00:00,
2013-11-17 01:15:00,44.1,29.4,29.43,NW,315,6.3,-999.0,56,-99.99,,,0.00,Acu-Link.com,2013-11-17 07:15:00,
2013-11-17 01:30:00,44.8,29.6,29.44,WNW,292,3.7,-999.0,55,-99.99,,,0.00,Acu-Link.com,2013-11-17 07:30:00,
2013-11-17 01:46:00,46.0,29.8,29.43,WNW,292,1.7,-999.0,53,-99.99,,,0.00,Acu-Link.com,2013-11-17 07:46:00,
2013-11-17 02:01:00,46.8,29.6,29.44,NNW,337,4.7,-999.0,51,-99.99,,,0.00,Acu-Link.com,2013-11-17 08:01:00,
2013-11-17 02:16:00,46.6,29.9,29.45,West,270,3.7,-999.0,52,-99.99,,,0.00,Acu-Link.com,2013-11-17 08:16:00,
2013-11-17 02:31:00,48.7,30.9,29.45,NW,315,3.7,-999.0,50,-99.99,,,0.00,Acu-Link.com,2013-11-17 08:31:00,
2013-11-17 02:46:00,50.4,31.5,29.45,NW,315,4.7,-999.0,48,-99.99,,,0.00,Acu-Link.com,2013-11-17 08:46:00,
2013-11-17 03:01:00,49.6,32.2,29.46,WNW,292,3.7,-999.0,51,-99.99,,,0.00,Acu-Link.com,2013-11-17 09:01:00,
2013-11-17 03:17:00,48.0,36.8,29.47,West,270,4.7,-999.0,65,-99.99,,,0.00,Acu-Link.com,2013-11-17 09:17:00,
2013-11-17 03:32:00,47.5,38.2,29.49,North,0,7.3,-999.0,70,-99.99,,,0.00,Acu-Link.com,2013-11-17 09:32:00,
2013-11-17 03:47:00,47.5,38.9,29.49,West,270,5.8,-999.0,72,-99.99,,,0.00,Acu-Link.com,2013-11-17 09:47:00,
2013-11-17 04:02:00,45.7,40.2,29.50,NNW,337,6.3,-999.0,81,-99.99,,,0.00,Acu-Link.com,2013-11-17 10:02:00,
2013-11-17 04:17:00,45.0,40.5,29.51,NNW,337,4.2,-999.0,84,-99.99,,,0.00,Acu-Link.com,2013-11-17 10:17:00,
2013-11-17 04:33:00,44.4,40.5,29.51,WNW,292,1.1,-999.0,86,-99.99,,,0.01,Acu-Link.com,2013-11-17 10:33:00,
2013-11-17 04:48:00,44.1,41.4,29.49,ESE,112,1.7,-999.0,90,-99.99,,,0.04,Acu-Link.com,2013-11-17 10:48:00,
2013-11-17 05:03:00,43.7,41.5,29.46,SSE,157,3.7,-999.0,92,-99.99,,,0.04,Acu-Link.com,2013-11-17 11:03:00,
2013-11-17 05:19:00,43.3,41.4,29.48,SW,225,0.0,-999.0,93,-99.99,,,0.04,Acu-Link.com,2013-11-17 11:19:00,
2013-11-17 05:34:00,42.8,41.2,29.48,SW,225,0.0,-999.0,94,-99.99,,,0.05,Acu-Link.com,2013-11-17 11:34:00,
2013-11-17 05:49:00,42.1,40.8,29.49,SE,135,0.0,-999.0,95,-99.99,,,0.05,Acu-Link.com,2013-11-17 11:49:00,
2013-11-17 06:04:00,41.2,39.9,29.49,WSW,247,0.0,-999.0,95,-99.99,,,0.05,Acu-Link.com,2013-11-17 12:04:00,
2013-11-17 06:20:00,40.5,39.2,29.50,SW,225,2.7,-999.0,95,-99.99,,,0.05,Acu-Link.com,2013-11-17 12:20:00,
2013-11-17 06:35:00,39.6,38.6,29.49,SW,225,0.0,-999.0,96,-99.99,,,0.05,Acu-Link.com,2013-11-17 12:35:00,
2013-11-17 06:50:00,39.0,38.0,29.50,West,270,2.7,-999.0,96,-99.99,,,0.05,Acu-Link.com,2013-11-17 12:50:00,
2013-11-17 07:06:00,38.5,37.5,29.50,South,180,2.7,-999.0,96,-99.99,,,0.05,Acu-Link.com,2013-11-17 13:06:00,
2013-11-17 07:21:00,38.1,37.1,29.50,WSW,247,2.7,-999.0,96,-99.99,,,0.05,Acu-Link.com,2013-11-17 13:21:00,
2013-11-17 07:36:00,37.8,36.2,29.51,SW,225,2.2,-999.0,94,-99.99,,,0.05,Acu-Link.com,2013-11-17 13:36:00,
2013-11-17 07:51:00,38.1,35.7,29.52,West,270,6.8,-999.0,91,-99.99,,,0.05,Acu-Link.com,2013-11-17 13:51:00,
2013-11-17 08:07:00,38.7,35.7,29.53,SW,225,4.7,-999.0,89,-99.99,,,0.05,Acu-Link.com,2013-11-17 14:07:00,
2013-11-17 08:22:00,40.6,36.5,29.53,West,270,4.7,-999.0,85,-99.99,,,0.05,Acu-Link.com,2013-11-17 14:22:00,
2013-11-17 08:37:00,42.1,37.0,29.55,West,270,4.7,-999.0,82,-99.99,,,0.05,Acu-Link.com,2013-11-17 14:37:00,
2013-11-17 08:52:00,43.0,36.6,29.55,WSW,247,5.3,-999.0,78,-99.99,,,0.05,Acu-Link.com,2013-11-17 14:52:00,
2013-11-17 09:07:00,43.9,36.5,29.55,West,270,6.3,-999.0,75,-99.99,,,0.05,Acu-Link.com,2013-11-17 15:07:00,
2013-11-17 09:22:00,45.1,35.9,29.57,West,270,6.8,-999.0,70,-99.99,,,0.05,Acu-Link.com,2013-11-17 15:22:00,
2013-11-17 09:38:00,46.0,35.7,29.58,West,270,7.8,-999.0,67,-99.99,,,0.05,Acu-Link.com,2013-11-17 15:38:00,
2013-11-17 09:53:00,48.0,34.4,29.59,West,270,7.3,-999.0,59,-99.99,,,0.05,Acu-Link.com,2013-11-17 15:53:00,
2013-11-17 10:08:00,49.6,33.2,29.60,West,270,9.4,-999.0,53,-99.99,,,0.05,Acu-Link.com,2013-11-17 16:08:00,
2013-11-17 10:23:00,50.9,32.9,29.62,West,270,10.4,-999.0,50,-99.99,,,0.05,Acu-Link.com,2013-11-17 16:23:00,
2013-11-17 10:38:00,52.5,31.8,29.64,West,270,9.9,-999.0,45,-99.99,,,0.05,Acu-Link.com,2013-11-17 16:38:00,
2013-11-17 10:53:00,49.8,29.9,29.65,WNW,292,9.9,-999.0,46,-99.99,,,0.05,Acu-Link.com,2013-11-17 16:53:00,
2013-11-17 11:08:00,52.0,30.2,29.66,WNW,292,8.3,-999.0,43,-99.99,,,0.05,Acu-Link.com,2013-11-17 17:08:00,
2013-11-17 11:23:00,53.4,29.7,29.66,NNE,22,6.3,-999.0,40,-99.99,,,0.05,Acu-Link.com,2013-11-17 17:23:00,
2013-11-17 11:38:00,54.1,30.3,29.67,West,270,9.9,-999.0,40,-99.99,,,0.05,Acu-Link.com,2013-11-17 17:38:00,
2013-11-17 11:53:00,54.3,30.5,29.68,West,270,9.4,-999.0,40,-99.99,,,0.05,Acu-Link.com,2013-11-17 17:53:00,
2013-11-17 12:08:00,54.9,30.4,29.68,West,270,10.9,-999.0,39,-99.99,,,0.05,Acu-Link.com,2013-11-17 18:08:00,
2013-11-17 12:23:00,54.9,31.0,29.68,North,0,8.3,-999.0,40,-99.99,,,0.05,Acu-Link.com,2013-11-17 18:23:00,
2013-11-17 12:38:00,55.2,31.3,29.69,ENE,67,8.9,-999.0,40,-99.99,,,0.05,Acu-Link.com,2013-11-17 18:38:00,
2013-11-17 12:53:00,54.7,32.1,29.70,West,270,8.9,-999.0,42,-99.99,,,0.05,Acu-Link.com,2013-11-17 18:53:00,
2013-11-17 13:09:00,55.2,33.1,29.71,WSW,247,10.9,-999.0,43,-99.99,,,0.05,Acu-Link.com,2013-11-17 19:09:00,
2013-11-17 13:24:00,54.3,31.7,29.73,West,270,12.5,-999.0,42,-99.99,,,0.05,Acu-Link.com,2013-11-17 19:24:00,
2013-11-17 13:39:00,54.3,32.3,29.73,WNW,292,8.3,-999.0,43,-99.99,,,0.05,Acu-Link.com,2013-11-17 19:39:00,
2013-11-17 13:55:00,53.6,32.2,29.75,SSW,202,9.9,-999.0,44,-99.99,,,0.05,Acu-Link.com,2013-11-17 19:55:00,
2013-11-17 14:10:00,53.4,32.0,29.75,West,270,7.3,-999.0,44,-99.99,,,0.05,Acu-Link.com,2013-11-17 20:10:00,
2013-11-17 14:26:00,53.2,32.4,29.76,NW,315,7.3,-999.0,45,-99.99,,,0.05,Acu-Link.com,2013-11-17 20:26:00,
2013-11-17 14:41:00,53.2,31.9,29.78,West,270,10.4,-999.0,44,-99.99,,,0.05,Acu-Link.com,2013-11-17 20:41:00,
2013-11-17 14:56:00,52.5,33.4,29.79,West,270,5.8,-999.0,48,-99.99,,,0.05,Acu-Link.com,2013-11-17 20:56:00,
2013-11-17 15:11:00,51.8,32.7,29.80,West,270,7.8,-999.0,48,-99.99,,,0.05,Acu-Link.com,2013-11-17 21:11:00,
2013-11-17 15:26:00,50.7,32.7,29.81,North,0,7.8,-999.0,50,-99.99,,,0.05,Acu-Link.com,2013-11-17 21:26:00,
2013-11-17 15:41:00,50.9,32.4,29.82,West,270,7.3,-999.0,49,-99.99,,,0.05,Acu-Link.com,2013-11-17 21:41:00,
2013-11-17 15:56:00,50.0,33.1,29.85,NNW,337,9.9,-999.0,52,-99.99,,,0.05,Acu-Link.com,2013-11-17 21:56:00,
2013-11-17 16:11:00,49.3,33.4,29.87,NW,315,10.4,-999.0,54,-99.99,,,0.05,Acu-Link.com,2013-11-17 22:11:00,
2013-11-17 16:27:00,47.3,32.4,29.89,West,270,10.9,-999.0,56,-99.99,,,0.05,Acu-Link.com,2013-11-17 22:27:00,
2013-11-17 16:42:00,46.0,32.1,29.90,WNW,292,7.3,-999.0,58,-99.99,,,0.05,Acu-Link.com,2013-11-17 22:42:00,
2013-11-17 16:57:00,45.5,32.4,29.91,SW,225,8.3,-999.0,60,-99.99,,,0.05,Acu-Link.com,2013-11-17 22:57:00,
2013-11-17 17:12:00,44.4,32.2,29.93,WNW,292,3.7,-999.0,62,-99.99,,,0.05,Acu-Link.com,2013-11-17 23:12:00,
2013-11-17 17:27:00,43.2,32.2,29.95,West,270,4.2,-999.0,65,-99.99,,,0.05,Acu-Link.com,2013-11-17 23:27:00,
2013-11-17 17:42:00,43.2,31.5,29.96,NNW,337,5.8,-999.0,63,-99.99,,,0.05,Acu-Link.com,2013-11-17 23:42:00,
2013-11-17 17:57:00,42.6,31.3,29.97,WNW,292,3.7,-999.0,64,-99.99,,,0.05,Acu-Link.com,2013-11-17 23:57:00,
2013-11-17 18:12:00,41.5,31.4,29.98,WNW,292,4.2,-999.0,67,-99.99,,,0.05,Acu-Link.com,2013-11-18 00:12:00,
2013-11-17 18:27:00,40.8,31.1,29.99,WNW,292,4.7,-999.0,68,-99.99,,,0.05,Acu-Link.com,2013-11-18 00:27:00,
2013-11-17 18:42:00,39.7,31.1,30.01,West,270,2.7,-999.0,71,-99.99,,,0.05,Acu-Link.com,2013-11-18 00:42:00,
2013-11-17 18:58:00,38.1,30.2,30.01,West,270,1.7,-999.0,73,-99.99,,,0.05,Acu-Link.com,2013-11-18 00:58:00,
2013-11-17 19:13:00,37.0,29.8,30.02,West,270,2.7,-999.0,75,-99.99,,,0.05,Acu-Link.com,2013-11-18 01:13:00,
2013-11-17 19:28:00,36.5,29.7,30.03,West,270,3.2,-999.0,76,-99.99,,,0.05,Acu-Link.com,2013-11-18 01:28:00,
2013-11-17 19:44:00,35.8,29.0,30.04,West,270,2.7,-999.0,76,-99.99,,,0.05,Acu-Link.com,2013-11-18 01:44:00,
2013-11-17 19:59:00,35.1,28.6,30.04,West,270,2.2,-999.0,77,-99.99,,,0.05,Acu-Link.com,2013-11-18 01:59:00,
2013-11-17 20:14:00,34.9,28.4,30.04,West,270,2.7,-999.0,77,-99.99,,,0.05,Acu-Link.com,2013-11-18 02:14:00,
2013-11-17 20:30:00,34.7,28.6,30.05,West,270,2.7,-999.0,78,-99.99,,,0.05,Acu-Link.com,2013-11-18 02:30:00,
2013-11-17 20:45:00,33.6,27.5,30.05,West,270,2.7,-999.0,78,-99.99,,,0.05,Acu-Link.com,2013-11-18 02:45:00,
2013-11-17 21:00:00,33.1,27.0,30.05,South,180,0.0,-999.0,78,-99.99,,,0.05,Acu-Link.com,2013-11-18 03:00:00,
2013-11-17 21:15:00,32.2,26.4,30.06,West,270,2.7,-999.0,79,-99.99,,,0.05,Acu-Link.com,2013-11-18 03:15:00,
2013-11-17 21:31:00,31.8,26.0,30.07,West,270,2.2,-999.0,79,-99.99,,,0.05,Acu-Link.com,2013-11-18 03:31:00,
2013-11-17 21:46:00,31.3,25.6,30.06,West,270,2.7,-999.0,79,-99.99,,,0.05,Acu-Link.com,2013-11-18 03:46:00,
2013-11-17 22:01:00,30.0,24.6,30.07,West,270,0.0,-999.0,80,-99.99,,,0.05,Acu-Link.com,2013-11-18 04:01:00,
2013-11-17 22:16:00,29.3,23.9,30.06,NNE,22,0.0,-999.0,80,-99.99,,,0.05,Acu-Link.com,2013-11-18 04:16:00,
2013-11-17 22:32:00,28.0,23.2,30.06,WSW,247,0.0,-999.0,82,-99.99,,,0.05,Acu-Link.com,2013-11-18 04:32:00,
2013-11-17 22:47:00,28.0,23.8,30.07,West,270,2.2,-999.0,84,-99.99,,,0.05,Acu-Link.com,2013-11-18 04:47:00,
2013-11-17 23:02:00,29.8,24.7,30.08,SSW,202,1.1,-999.0,81,-99.99,,,0.05,Acu-Link.com,2013-11-18 05:02:00,
2013-11-17 23:17:00,28.9,23.8,30.09,WSW,247,2.7,-999.0,81,-99.99,,,0.05,Acu-Link.com,2013-11-18 05:17:00,
2013-11-17 23:33:00,28.0,22.9,30.09,SW,225,0.0,-999.0,81,-99.99,,,0.05,Acu-Link.com,2013-11-18 05:33:00,
2013-11-17 23:48:00,27.7,22.9,30.10,WSW,247,2.2,-999.0,82,-99.99,,,0.05,Acu-Link.com,2013-11-18 05:48:00,